[[{"header":{"parameterUnit":"m.s-1","parameterCategory":1,"la1":30.2991,"la2":30.254,"lo1":-89.0895,"lo2":-89.0444,"dy":0.0017,"dx":0.0017,"nx":28,"ny":28,"refTime":"2023-09-03T03:00:00:Z","depth":0,"parameterNumber":2,"parameterNumberName":"U-component_of_WINDS"},"data":[0,0,0,0,0,0,0,0,0,0,0,0,0,0,0,0,0,0,0,0,0,0,0,0,0,0,0,0,0,0,0,0,0,0,0,0,0,0,0,0,0,0,0,0,0,0,0,0,0,0,0,0,0,0,0,0,0,0,-5.2372,-5.2373,0,-5.2477,-5.2478,-5.2479,-5.2464,-5.2463,-5.2461,-5.2459,-5.2562,-5.2566,-5.257,0,0,0,0,0,0,0,0,0,0,0,0,0,-5.2152,-5.2157,-5.2372,-5.2373,-5.2374,-5.2476,-5.2478,-5.2479,-5.2465,-5.2463,-5.246,-5.2458,-5.256,-5.2565,-5.2571,0,0,0,0,0,0,0,0,0,0,0,0,0,-5.2251,-5.2158,-5.2371,-5.2379,-5.2381,-5.2476,-5.2478,-5.248,-5.2465,-5.2462,-5.246,-5.2457,-5.2559,-5.2565,-5.2571,-5.2663,0,0,-5.2591,-5.2594,0,0,0,0,0,0,0,0,-5.2246,-5.2259,-5.2377,-5.2379,-5.2381,-5.2455,-5.2438,-5.2541,-5.2466,-5.2433,-5.2459,-5.2456,-5.2528,-5.2537,-5.2562,-5.2668,-5.2673,-5.2592,-5.2596,-5.2599,-5.26,0,0,0,0,0,0,0,-5.2239,-5.2255,-5.2413,-5.2379,-5.2381,-5.2376,-5.2387,-5.2457,-5.2494,-5.2436,-5.2435,-5.2448,-5.2528,-5.2556,-5.2564,-5.2674,-5.2592,-5.2597,-5.2601,-5.2604,-5.2857,-5.286,0,0,0,0,0,0,-5.2231,-5.2249,-5.241,-5.2416,-5.2306,-5.2382,-5.2394,-5.2434,-5.2493,-5.2499,-5.245,-5.2447,-5.2546,-5.2557,-5.2568,-5.2676,-5.2598,-5.2605,-5.2608,-5.2854,-5.2857,-5.2861,0,0,0,0,0,0,-5.2226,-5.2245,-5.2405,-5.2333,-5.2353,-5.2388,-5.2433,-5.2437,-5.2464,-5.2504,-5.2509,-5.2471,-5.2544,-5.2559,-5.2639,-5.268,-5.2607,-5.2613,-5.2851,-5.2855,-5.2859,-5.2896,0,0,0,0,0,0,-5.222,-5.2244,-5.2281,-5.2334,-5.2357,-5.2477,-5.2435,-5.2441,-5.2476,-5.2473,-5.2525,-5.2531,-5.2543,-5.263,-5.2646,-5.2687,-5.2618,-5.2847,-5.2853,-5.2858,-5.2891,-5.2901,-5.2909,0,0,0,0,0,-5.2212,-5.2286,-5.2283,-5.2302,-5.2404,-5.2479,-5.2492,-5.2506,-5.248,-5.2515,-5.254,-5.253,-5.2674,-5.2638,-5.2656,-5.27,-5.2845,-5.2851,-5.2857,-5.2887,-5.2899,-5.2909,0,0,0,0,0,0,-5.2236,-5.2294,-5.229,-5.2384,-5.2427,-5.2477,-5.2523,-5.2519,-5.2569,-5.2563,-5.2577,-5.2589,-5.2669,-5.2693,-5.2653,-5.279,-5.2755,-5.2765,-5.2771,-5.2783,-5.2792,-5.2782,-5.2624,0,0,0,0,0,-5.2252,-5.2311,-5.2358,-5.2436,-5.2458,-5.2487,-5.252,-5.2527,-5.2571,-5.2589,-5.262,-5.2662,-5.2716,-5.2751,-5.2804,-5.2895,-5.2904,-5.2934,-5.2943,-5.2951,-5.2958,-5.3004,-5.3017,-5.2881,-5.2881,-5.2881,0,0,-5.2286,-5.2325,-5.2361,-5.2442,-5.2476,-5.2533,-5.2502,-5.2565,-5.2607,-5.2598,-5.2675,-5.27,-5.2747,-5.2833,-5.2872,-5.2855,-5.2998,-5.2959,-5.2964,-5.2968,-5.3012,-5.3025,-5.3036,-5.2886,-5.2885,-5.2884,0,0,-5.2377,-5.2414,-5.2481,-5.2516,-5.2569,-5.2587,-5.2604,-5.2654,-5.267,-5.2748,-5.2742,-5.2791,-5.2886,-5.2919,-5.2948,-5.305,-5.304,-5.3067,-5.3112,-5.3157,-5.3168,-5.3177,-5.3209,-5.3221,-5.3075,-5.3075,-5.3075,0,-5.2411,-5.25,-5.2516,-5.258,-5.2613,-5.261,-5.2676,-5.2709,-5.2775,-5.2798,-5.2779,-5.2895,-5.2927,-5.3018,-5.3043,-5.3069,-5.3084,-5.3059,-5.3165,-5.3175,-5.3184,-5.3215,-5.3227,-5.3077,-5.3077,-5.3077,-5.3076,0,-5.2538,-5.26,-5.2648,-5.2712,-5.2752,-5.2817,-5.2841,-5.2879,-5.2882,-5.2902,-5.298,-5.3018,-5.3076,-5.31,-5.3104,-5.3191,-5.3178,-5.3163,-5.3126,-5.3199,-5.3228,-5.324,-5.3081,-5.308,-5.3079,-5.3079,0,0,-5.2645,-5.2718,-5.2735,-5.2763,-5.282,-5.2866,-5.293,-5.2989,-5.3019,-5.3065,-5.3116,-5.3196,-5.3181,-5.3214,-5.3221,-5.3261,-5.3335,-5.324,-5.3241,-5.3253,-5.3428,-5.3437,-5.3451,-5.333,-5.3333,-5.3335,-5.3423,0,-5.2738,-5.2852,-5.2867,-5.2967,-5.3021,-5.3018,-5.3073,-5.3112,-5.3133,-5.318,-5.3202,-5.3256,-5.3235,-5.3254,-5.3294,-5.3317,-5.3369,-5.3312,-5.3374,-5.3376,-5.3359,-5.3467,-5.3477,-5.3559,-5.3435,-5.3437,-5.3439,0,-5.2861,-5.2911,-5.3016,-5.3063,-5.3087,-5.3136,-5.3189,-5.3236,-5.328,-5.3292,-5.3328,-5.333,-5.3393,-5.3357,-5.3442,-5.3402,-5.3429,-5.3444,-5.3447,-5.3451,-5.3409,-5.3469,-5.3585,-5.3596,-5.3457,-5.3456,-5.3455,0,-5.2923,-5.3017,-5.3091,-5.3115,-5.3174,-5.3208,-5.3233,-5.3275,-5.3308,-5.3355,-5.3375,-5.3429,-5.3456,-5.3496,-5.3511,-5.3485,-5.3594,-5.356,-5.3602,-5.3601,-5.3622,-5.362,-5.374,-5.3646,-5.3646,-5.3646,-5.3645,0,-5.3023,-5.3087,-5.3119,-5.3164,-5.3234,-5.3251,-5.3319,-5.3343,-5.338,-5.3427,-5.3429,-5.3473,-5.3492,-5.3539,-5.3551,-5.3617,-5.3631,-5.3639,-5.3641,-5.3637,-5.3635,-5.3652,-5.3645,-5.3649,-5.3648,-5.3647,-5.3647,0,-5.3103,-5.3128,-5.3208,-5.3257,-5.327,-5.3319,-5.336,-5.3402,-5.3422,-5.3482,-5.3497,-5.3527,-5.3582,-5.3602,-5.3669,-5.3677,-5.3752,-5.3751,-5.3737,-5.3737,-5.3776,-5.377,-5.3908,-5.3925,-5.3823,-5.3824,-5.3825,0,-5.3164,-5.3212,-5.3266,-5.3299,-5.3326,-5.3379,-5.3412,-5.3431,-5.3465,-5.3518,-5.3553,-5.3608,-5.3652,-5.374,-5.3766,-5.3816,-5.3814,-5.3859,-5.3821,-5.3815,-5.381,-5.3805,-5.3808,-5.3865,-5.3866,-5.3867,-5.3867,0,-5.3267,-5.3276,-5.3326,-5.338,-5.342,-5.3463,-5.3505,-5.3531,-5.3555,-5.3594,-5.365,-5.3685,-5.3753,-5.3805,-5.3857,-5.3881,-5.3876,-5.3879,-5.3891,-5.3885,-5.3874,-5.3876,-5.3752,-5.3875,-5.3874,-5.3874,-5.3873,-5.3873,-5.3336,-5.3378,-5.3422,-5.3476,-5.351,-5.3548,-5.3589,-5.3614,-5.3662,-5.3719,-5.3727,-5.3787,-5.3827,-5.3896,-5.3922,-5.3967,-5.3954,-5.3972,-5.3976,-5.3979,-5.398,-5.387,-5.3977,-5.3976,-5.3976,-5.3976,-5.3976,0,-5.3435,-5.3464,-5.3514,-5.3572,-5.3614,-5.361,-5.3655,-5.3689,-5.3742,-5.3781,-5.3825,-5.3888,-5.3939,-5.397,-5.4021,-5.4051,-5.405,-5.4063,-5.4059,-5.4064,-5.399,-5.3973,-5.4063,-5.4063,-5.4063,-5.4062,-5.4062,-5.4062,-5.3492,-5.3561,-5.3576,-5.3661,-5.3688,-5.3747,-5.3773,-5.3807,-5.3838,-5.3909,-5.3952,-5.3972,-5.4007,-5.406,-5.4105,-5.4113,-5.4129,-5.4143,-5.4149,-5.4079,-5.4069,-5.4061,-5.4045,-5.4148,-5.4148,-5.4218,-5.4219,-5.4219]},{"header":{"parameterUnit":"m.s-1","parameterCategory":1,"la1":30.2991,"la2":30.254,"lo1":-89.0895,"lo2":-89.0444,"dy":0.0017,"dx":0.0017,"nx":28,"ny":28,"refTime":"2023-09-03T03:00:00:Z","depth":0,"parameterNumber":3,"parameterNumberName":"V-component_of_WINDS"},"data":[0,0,0,0,0,0,0,0,0,0,0,0,0,0,0,0,0,0,0,0,0,0,0,0,0,0,0,0,0,0,0,0,0,0,0,0,0,0,0,0,0,0,0,0,0,0,0,0,0,0,0,0,0,0,0,0,0,0,0.9566,0.9567,0,0.9658,0.966,0.9661,0.9727,0.9727,0.9728,0.9728,0.9829,0.9831,0.9833,0,0,0,0,0,0,0,0,0,0,0,0,0,0.9455,0.9457,0.9566,0.9567,0.9568,0.9658,0.966,0.9661,0.9726,0.9727,0.9728,0.9728,0.9828,0.9831,0.9833,0,0,0,0,0,0,0,0,0,0,0,0,0,0.9521,0.9458,0.9566,0.9612,0.9617,0.9658,0.966,0.9661,0.9726,0.9727,0.9728,0.9729,0.9827,0.983,0.9834,0.9838,0,0,0.9844,0.9845,0,0,0,0,0,0,0,0,0.9517,0.9525,0.9604,0.9609,0.9614,0.9682,0.9658,0.9721,0.9726,0.9685,0.9728,0.9729,0.978,0.9787,0.9803,0.9843,0.9847,0.9844,0.9846,0.9847,0.9848,0,0,0,0,0,0,0,0.9513,0.9522,0.9603,0.9605,0.9611,0.9631,0.9641,0.967,0.9727,0.9689,0.9694,0.9703,0.9783,0.9799,0.9805,0.9849,0.9844,0.9847,0.9849,0.985,0.9904,0.9903,0,0,0,0,0,0,0.95,0.9517,0.96,0.9606,0.9567,0.9632,0.9644,0.9659,0.9727,0.9738,0.9703,0.9706,0.9793,0.9802,0.9809,0.9822,0.9847,0.985,0.9852,0.9904,0.9904,0.9903,0,0,0,0,0,0,0.9497,0.9507,0.9596,0.9563,0.9576,0.9633,0.9651,0.9661,0.9677,0.9737,0.9749,0.9708,0.9794,0.9805,0.9831,0.9826,0.9852,0.9855,0.9905,0.9904,0.9903,0.9845,0,0,0,0,0,0,0.9494,0.9505,0.9505,0.9562,0.9577,0.9613,0.965,0.9662,0.9682,0.9688,0.9746,0.9756,0.9796,0.9826,0.9835,0.9831,0.9857,0.9906,0.9905,0.9904,0.9848,0.9843,0.9838,0,0,0,0,0,0.949,0.9485,0.9505,0.9514,0.9578,0.9613,0.9622,0.9665,0.9681,0.9683,0.9723,0.9754,0.9826,0.9828,0.9838,0.9836,0.9906,0.9905,0.9904,0.985,0.9844,0.9838,0,0,0,0,0,0,0.9427,0.9494,0.9516,0.9529,0.9565,0.9624,0.9627,0.9656,0.969,0.9693,0.9749,0.9761,0.9783,0.9813,0.9814,0.9847,0.987,0.9871,0.9826,0.9821,0.9816,0.9808,0.986,0,0,0,0,0,0.9414,0.9435,0.9493,0.95,0.9516,0.9569,0.9586,0.9617,0.9656,0.9672,0.9713,0.9753,0.9785,0.9805,0.9837,0.9854,0.987,0.9858,0.9853,0.9848,0.9848,0.9864,0.986,0.9899,0.9899,0.9899,0,0,0.9389,0.9428,0.9438,0.9488,0.9519,0.9542,0.9581,0.9602,0.9621,0.9676,0.9704,0.9736,0.9785,0.9807,0.9819,0.9832,0.9842,0.9847,0.9843,0.9845,0.9862,0.9858,0.9855,0.9898,0.9898,0.9899,0,0,0.9355,0.9385,0.9395,0.9426,0.9473,0.9509,0.9511,0.9567,0.959,0.9619,0.9662,0.9687,0.9739,0.9773,0.9797,0.9782,0.9813,0.9791,0.9765,0.9779,0.9776,0.9774,0.977,0.9768,0.9791,0.9791,0.9791,0,0.9318,0.9351,0.9397,0.9417,0.944,0.9491,0.9504,0.9533,0.9588,0.9604,0.9618,0.9688,0.9724,0.9757,0.9754,0.9771,0.9779,0.9783,0.9772,0.977,0.9769,0.9767,0.9765,0.9788,0.9788,0.9788,0.9789,0,0.9305,0.9328,0.9331,0.9382,0.9406,0.9422,0.9474,0.9493,0.9524,0.9559,0.9591,0.9637,0.9681,0.9692,0.9721,0.9731,0.9738,0.9761,0.9786,0.9761,0.976,0.9759,0.9784,0.9785,0.9786,0.9786,0,0,0.923,0.9309,0.931,0.9335,0.9393,0.9413,0.9435,0.9476,0.9493,0.9531,0.9553,0.9599,0.9622,0.965,0.9685,0.9698,0.9686,0.9721,0.9723,0.9714,0.9703,0.9685,0.9682,0.9708,0.9708,0.9708,0.97,0,0.9205,0.9242,0.9286,0.931,0.9334,0.9385,0.9404,0.9444,0.9479,0.9508,0.9548,0.958,0.9608,0.9625,0.964,0.9684,0.9685,0.9685,0.9732,0.9733,0.9717,0.9681,0.9661,0.965,0.9699,0.9699,0.9699,0,0.9179,0.9214,0.9239,0.9298,0.931,0.9326,0.937,0.9396,0.9444,0.947,0.9502,0.9541,0.9571,0.9593,0.9637,0.9636,0.9659,0.9684,0.9685,0.9691,0.9713,0.9687,0.9648,0.9646,0.9698,0.9698,0.9698,0,0.9124,0.9178,0.92,0.9221,0.9289,0.93,0.933,0.9379,0.9403,0.9443,0.946,0.9504,0.9529,0.9564,0.9616,0.9627,0.9656,0.9682,0.9681,0.9679,0.9683,0.9682,0.9647,0.9697,0.9697,0.9697,0.9697,0,0.9091,0.9105,0.9177,0.919,0.9209,0.9263,0.9281,0.9316,0.936,0.9385,0.9434,0.9457,0.9523,0.9556,0.9597,0.963,0.964,0.9664,0.9675,0.966,0.9657,0.9674,0.9677,0.9697,0.9697,0.9697,0.9697,0,0.9031,0.9079,0.9108,0.9172,0.9188,0.9199,0.9256,0.9274,0.9314,0.9345,0.9356,0.9419,0.946,0.9515,0.9574,0.9603,0.963,0.9647,0.9613,0.9619,0.9616,0.9615,0.9591,0.9592,0.964,0.964,0.9639,0,0.9007,0.9018,0.9084,0.9103,0.913,0.916,0.9185,0.9241,0.9266,0.9324,0.9336,0.9381,0.9419,0.9485,0.9538,0.9585,0.9604,0.9593,0.9611,0.9597,0.9606,0.9604,0.9607,0.9587,0.9586,0.9586,0.9585,0,0.8959,0.8983,0.9015,0.9057,0.9085,0.9121,0.916,0.9174,0.9239,0.9265,0.9307,0.9337,0.9398,0.9444,0.9499,0.9534,0.9572,0.9579,0.9582,0.9566,0.9546,0.9559,0.96,0.9579,0.958,0.958,0.958,0.9581,0.8917,0.8931,0.8979,0.9015,0.905,0.9086,0.9107,0.915,0.9185,0.9237,0.9269,0.9311,0.9365,0.9442,0.9477,0.9514,0.9528,0.9531,0.9532,0.9532,0.9528,0.9541,0.9524,0.9524,0.9525,0.9525,0.9525,0,0.8872,0.8907,0.8939,0.8991,0.9021,0.9052,0.9099,0.9122,0.9157,0.9203,0.924,0.9291,0.9337,0.9396,0.9447,0.9466,0.9485,0.9477,0.9477,0.9485,0.9511,0.9504,0.9461,0.9461,0.9461,0.9461,0.9461,0.9461,0.8852,0.8878,0.8909,0.8955,0.8991,0.903,0.9054,0.909,0.9127,0.9181,0.9218,0.9255,0.9309,0.9365,0.941,0.9427,0.9444,0.9432,0.9454,0.9477,0.9483,0.9488,0.9482,0.9435,0.9435,0.9425,0.9425,0.9425]}]]